M I D A S
Marine Information and Data Acquisition System
Tripno 2071 of the Zeeleeuw from 2011-04-04 06:47:19 to 2011-04-04 15:57:38
Back to CruiseResearch ActivitiesStationsMapUnderway DataData graphs

EquipmentUnitsComments
TimeDGPSUTC
LatitudeDGPSDM.mWGS84
LongitudeDGPSDM.mWGS84
SpeedMeteo Stationm/sRelative wind speed
DirectionMeteo StationdegRelative wind direction
TemperatureMeteo Stationdeg CelciusAir temperature
PressureMeteo StationPaAtmospheric pressure
HumidityMeteo Station%Relative humidity
Missing or incorrect values are displayed as -999
Metereological data collected by the RV Zeeleeuw from 2011-04-04 06:23:44 to 2011-04-04 16:08:32
Time Latitude Longitude Speed Direction Temperature Pressure Humidity
2011-04-04 06:24 51°13.598 2°56.094 2.5 39 9.1 101990 49
2011-04-04 06:25 51°13.597 2°56.094 0.1 78 9.2 102000 47
2011-04-04 06:26 51°13.598 2°56.095 1.1 38 9.2 102000 47
2011-04-04 06:27 51°13.598 2°56.094 1.4 80 9.2 102000 45
2011-04-04 06:28 51°13.599 2°56.095 0.1 34 9.2 102000 47
2011-04-04 06:29 51°13.599 2°56.095 1.8 44 9.2 102000 46
2011-04-04 06:30 51°13.599 2°56.095 0.1 78 9.3 102010 47
2011-04-04 06:31 51°13.599 2°56.096 -999 78 9.3 102010 46
2011-04-04 06:32 51°13.599 2°56.096 1.5 82 9.3 102010 48
2011-04-04 06:33 51°13.599 2°56.096 0.9 38 9.3 102010 46
2011-04-04 06:34 51°13.599 2°56.096 3.4 45 9.3 102010 48
2011-04-04 06:35 51°13.598 2°56.095 4.3 80 9.3 102010 48
2011-04-04 06:36 51°13.598 2°56.096 0.4 24 9.3 102020 48
2011-04-04 06:37 51°13.598 2°56.095 0.7 42 9.3 102020 48
2011-04-04 06:38 51°13.599 2°56.095 0.1 82 9.3 102020 46
2011-04-04 06:39 51°13.598 2°56.095 1.6 43 9.3 102020 46
2011-04-04 06:40 51°13.597 2°56.094 4 42 9.3 102030 46
2011-04-04 06:41 51°13.597 2°56.094 2.3 39 9.2 102020 46
2011-04-04 06:42 51°13.597 2°56.095 0.3 42 9.2 102020 47
2011-04-04 06:43 51°13.597 2°56.094 3.8 74 9.2 102030 46
2011-04-04 06:44 51°13.598 2°56.094 0.6 41 9.2 102030 44
2011-04-04 06:45 51°13.598 2°56.095 -999 34 9.2 102030 46
2011-04-04 06:46 51°13.597 2°56.095 0.1 78 9.2 102030 46
2011-04-04 06:47 51°13.597 2°56.092 -999 42 9.2 102030 46
2011-04-04 06:48 51°13.616 2°56.03 5.1 76 9.2 102040 45
2011-04-04 06:49 51°13.649 2°55.928 5.3 78 9.3 102040 48
2011-04-04 06:50 51°13.681 2°55.809 2.3 76 9.3 102040 48
2011-04-04 06:51 51°13.695 2°55.739 2.8 81 9.4 102030 48
2011-04-04 06:52 51°13.714 2°55.759 0.2 287 9.4 102040 47
2011-04-04 06:53 51°13.704 2°55.759 2.7 283 9.4 102040 48
2011-04-04 06:54 51°13.764 2°55.7 3.9 278 9.5 102040 45
2011-04-04 06:55 51°13.875 2°55.601 5.2 281 9.5 102040 45
2011-04-04 06:56 51°13.997 2°55.512 5 284 9.5 102030 45
2011-04-04 06:57 51°14.139 2°55.409 7.9 280 9.4 102030 48
2011-04-04 06:58 51°14.282 2°55.272 8.8 286 9.4 102030 47
2011-04-04 06:59 51°14.43 2°55.124 9.6 285 9.4 102010 45
2011-04-04 07:00 51°14.58 2°54.949 9.7 287 9.3 102020 46
2011-04-04 07:01 51°14.741 2°54.75 11.5 284 9.3 102000 46
2011-04-04 07:02 51°14.914 2°54.551 10.5 282 9.3 102000 45
2011-04-04 07:03 51°15.086 2°54.354 12.2 282 9.2 102000 46
2011-04-04 07:04 51°15.256 2°54.151 10.5 281 9.2 102010 47
2011-04-04 07:05 51°15.423 2°53.939 12.4 286 9.2 102000 46
2011-04-04 07:06 51°15.594 2°53.731 11.9 284 9.2 102000 45
2011-04-04 07:07 51°15.77 2°53.541 9.7 283 9.1 102000 47
2011-04-04 07:08 51°15.955 2°53.381 11.2 284 9.1 102010 45
2011-04-04 07:09 51°16.139 2°53.219 11.6 283 9.1 102010 47
2011-04-04 07:10 51°16.326 2°53.061 11.7 282 9.1 102010 45
2011-04-04 07:11 51°16.514 2°52.913 11.4 282 9.1 102020 46
2011-04-04 07:12 51°16.703 2°52.773 9.4 278 9.1 102020 45
2011-04-04 07:13 51°16.894 2°52.67 10.1 281 9.1 102020 47
2011-04-04 07:14 51°17.092 2°52.614 9.6 287 9.1 102030 46
2011-04-04 07:15 51°17.292 2°52.589 8.4 286 9.1 102030 47
2011-04-04 07:16 51°17.494 2°52.565 7 280 9.1 102030 47
2011-04-04 07:17 51°17.694 2°52.536 8.4 280 9.1 102030 45
2011-04-04 07:18 51°17.886 2°52.605 4.3 284 9.1 102040 45
2011-04-04 07:19 51°18.072 2°52.704 5.5 280 9.1 102040 45
2011-04-04 07:20 51°18.243 2°52.856 5.2 285 9.2 102050 45
2011-04-04 07:21 51°18.426 2°52.972 5.1 283 9.2 102050 47
2011-04-04 07:22 51°18.61 2°53.079 5.4 279 9.2 102060 47
2011-04-04 07:23 51°18.797 2°53.173 6.2 285 9.2 102060 46
2011-04-04 07:24 51°18.985 2°53.263 5.5 285 9.2 102060 47
2011-04-04 07:25 51°19.171 2°53.35 6.4 284 9.2 102060 45
2011-04-04 07:26 51°19.358 2°53.436 5.5 280 9.2 102060 47
2011-04-04 07:27 51°19.546 2°53.518 6 286 9.2 102060 45
2011-04-04 07:28 51°19.732 2°53.601 5.1 282 9.2 102060 45
2011-04-04 07:29 51°19.918 2°53.69 6.4 283 9.2 102060 45
2011-04-04 07:30 51°20.104 2°53.781 5.5 285 9.2 102070 45
2011-04-04 07:31 51°20.293 2°53.864 5.6 283 9.3 102070 45
2011-04-04 07:32 51°20.481 2°53.946 5.9 281 9.2 102070 48
2011-04-04 07:33 51°20.67 2°54.026 6.1 285 9.2 102070 47
2011-04-04 07:34 51°20.859 2°54.112 6 279 9.2 102070 46
2011-04-04 07:35 51°21.048 2°54.197 4.6 279 9.2 102060 47
2011-04-04 07:36 51°21.24 2°54.276 6.6 284 9.1 102070 46
2011-04-04 07:37 51°21.431 2°54.357 0.1 282 9.1 102070 46
2011-04-04 07:38 51°21.622 2°54.437 7.2 285 9.1 102070 46
2011-04-04 07:39 51°21.814 2°54.513 5.7 282 9.1 102080 47
2011-04-04 07:40 51°22.005 2°54.594 4.7 279 9.1 102080 46
2011-04-04 07:41 51°22.198 2°54.669 3.9 280 9.1 102080 47
2011-04-04 07:42 51°22.391 2°54.75 0.1 282 9.1 102080 46
2011-04-04 07:43 51°22.586 2°54.825 -999 282 9 102080 46
2011-04-04 07:44 51°22.779 2°54.9 -999 282 9 102080 46
2011-04-04 07:45 51°22.97 2°54.977 -999 282 9 102080 46
2011-04-04 07:46 51°23.16 2°55.055 -999 282 9 102080 46
2011-04-04 07:47 51°23.349 2°55.138 -999 282 9 102080 46
2011-04-04 07:48 51°23.538 2°55.223 -999 282 9 102080 46
2011-04-04 07:49 51°23.728 2°55.305 -999 282 9 102080 46
2011-04-04 07:50 51°23.917 2°55.388 -999 282 9 102080 46
2011-04-04 07:51 51°24.106 2°55.463 -999 282 8.9 102080 46
2011-04-04 07:52 51°24.297 2°55.543 -999 282 8.9 102080 46
2011-04-04 07:53 51°24.49 2°55.622 -999 282 8.9 102080 46
2011-04-04 07:54 51°24.685 2°55.702 4.4 284 8.9 102080 45
2011-04-04 07:55 51°24.88 2°55.782 5.9 279 8.9 102080 47
2011-04-04 07:56 51°25.073 2°55.861 2.9 284 8.9 102080 45
2011-04-04 07:57 51°25.266 2°55.935 0.1 277 8.9 102090 48
2011-04-04 07:58 51°25.454 2°56.016 0.1 282 8.9 102090 46
2011-04-04 07:59 51°25.641 2°56.1 6.1 281 8.8 102080 46
2011-04-04 08:00 51°25.829 2°56.186 5.4 279 8.8 102080 47
2011-04-04 08:01 51°26.015 2°56.271 5.3 280 8.8 102080 45
2011-04-04 08:02 51°26.2 2°56.358 5.6 285 8.8 102090 47
2011-04-04 08:03 51°26.387 2°56.44 -999 282 8.8 102080 46
2011-04-04 08:04 51°26.575 2°56.52 5.8 280 8.9 102090 48
2011-04-04 08:05 51°26.762 2°56.597 6.7 284 8.9 102090 48
2011-04-04 08:06 51°26.947 2°56.679 5.9 280 8.9 102090 45
2011-04-04 08:07 51°27.133 2°56.752 6.3 286 8.8 102090 45
2011-04-04 08:08 51°27.317 2°56.832 -999 282 8.8 102090 46
2011-04-04 08:09 51°27.504 2°56.913 0.1 282 8.8 102090 46
2011-04-04 08:10 51°27.693 2°56.993 0.1 282 8.7 102090 46
2011-04-04 08:11 51°27.885 2°57.072 0.1 282 8.7 102090 46
2011-04-04 08:12 51°28.075 2°57.151 0.1 282 8.7 102090 46
2011-04-04 08:13 51°28.262 2°57.227 -999 282 8.7 102090 46
2011-04-04 08:14 51°28.449 2°57.298 -999 282 8.6 102090 46
2011-04-04 08:15 51°28.635 2°57.369 0.1 282 8.6 102100 46
2011-04-04 08:16 51°28.822 2°57.446 -999 282 8.6 102100 46
2011-04-04 08:17 51°29.01 2°57.52 -999 282 8.6 102100 46
2011-04-04 08:18 51°29.198 2°57.596 0.2 282 8.6 102100 46
2011-04-04 08:19 51°29.384 2°57.675 -999 282 8.5 102100 46
2011-04-04 08:20 51°29.569 2°57.752 -999 282 8.5 102100 46
2011-04-04 08:21 51°29.756 2°57.824 -999 282 8.5 102090 46
2011-04-04 08:22 51°29.943 2°57.898 -999 282 8.5 102100 46
2011-04-04 08:23 51°30.13 2°57.975 5.7 279 8.4 102100 46
2011-04-04 08:24 51°30.319 2°58.053 0.2 282 8.5 102110 47
2011-04-04 08:25 51°30.508 2°58.136 -999 282 8.4 102100 46
2011-04-04 08:26 51°30.697 2°58.223 -999 282 8.4 102100 46
2011-04-04 08:27 51°30.887 2°58.31 -999 282 8.4 102110 46
2011-04-04 08:28 51°31.075 2°58.394 -999 282 8.4 102110 46
2011-04-04 08:29 51°31.262 2°58.474 -999 282 8.4 102110 46
2011-04-04 08:30 51°31.447 2°58.549 -999 282 8.4 102110 46
2011-04-04 08:31 51°31.629 2°58.63 -999 282 8.4 102110 46
2011-04-04 08:32 51°31.814 2°58.715 -999 282 8.4 102110 46
2011-04-04 08:33 51°31.998 2°58.798 -999 282 8.4 102110 46
2011-04-04 08:34 51°32.183 2°58.88 -999 282 8.4 102110 46
2011-04-04 08:35 51°32.369 2°58.957 -999 282 8.4 102110 46
2011-04-04 08:36 51°32.554 2°59.03 -999 282 8.4 102110 46
2011-04-04 08:37 51°32.739 2°59.128 -999 282 8.4 102110 46
2011-04-04 08:38 51°32.925 2°59.202 -999 282 8.4 102100 46
2011-04-04 08:39 51°33.115 2°59.249 -999 282 8.3 102100 46
2011-04-04 08:40 51°33.305 2°59.292 -999 282 8.4 102100 46
2011-04-04 08:41 51°33.494 2°59.337 -999 282 8.4 102110 46
2011-04-04 08:42 51°33.683 2°59.381 -999 282 8.4 102110 46
2011-04-04 08:43 51°33.87 2°59.427 -999 282 8.4 102110 46
2011-04-04 08:44 51°34.057 2°59.47 -999 282 8.4 102110 46
2011-04-04 08:45 51°34.245 2°59.508 -999 282 8.4 102110 46
2011-04-04 08:46 51°34.434 2°59.552 -999 282 8.4 102110 46
2011-04-04 08:47 51°34.618 2°59.605 -999 282 8.4 102110 46
2011-04-04 08:48 51°34.762 2°59.789 -999 282 8.4 102120 46
2011-04-04 08:49 51°34.933 2°59.909 -999 282 8.4 102120 46
2011-04-04 08:50 51°35.06 3°0.013 -999 282 8.4 102120 46
2011-04-04 08:51 51°35.087 3°0.066 -999 286 8.4 102130 46
2011-04-04 08:52 51°35.079 3°0.056 3.2 279 8.3 102120 44
2011-04-04 08:53 51°35.065 3°0.038 6.4 280 8.4 102130 48
2011-04-04 08:54 51°35.049 3°0.018 5.6 282 8.4 102130 45
2011-04-04 08:55 51°35.032 3°0.001 5.9 284 8.4 102120 46
2011-04-04 08:56 51°35.015 2°59.984 6.3 282 8.4 102130 46
2011-04-04 08:57 51°34.995 2°59.969 6.3 284 8.4 102130 45
2011-04-04 08:58 51°34.976 2°59.957 6.3 281 8.4 102130 48
2011-04-04 08:59 51°34.956 2°59.946 4.1 282 8.4 102130 45
2011-04-04 09:00 51°34.936 2°59.935 2.7 284 8.3 102130 45
2011-04-04 09:01 51°34.916 2°59.923 3.7 279 8.3 102140 48
2011-04-04 09:02 51°34.896 2°59.912 3 283 8.3 102130 45
2011-04-04 09:03 51°34.878 2°59.9 3 283 8.4 102130 45
2011-04-04 09:04 51°34.86 2°59.889 3.1 280 8.4 102140 48
2011-04-04 09:05 51°34.843 2°59.878 0.1 282 8.4 102130 48
2011-04-04 09:06 51°34.826 2°59.864 2.9 279 8.4 102140 45
2011-04-04 09:07 51°34.808 2°59.849 3.9 285 8.4 102140 48
2011-04-04 09:08 51°34.791 2°59.835 4.3 285 8.4 102140 48
2011-04-04 09:09 51°34.774 2°59.822 1.5 280 8.5 102140 46
2011-04-04 09:10 51°34.758 2°59.809 5.9 286 8.5 102140 46
2011-04-04 09:11 51°34.74 2°59.796 5.4 283 8.6 102140 47
2011-04-04 09:12 51°34.721 2°59.783 6.4 284 8.6 102140 46
2011-04-04 09:13 51°34.702 2°59.771 5.6 283 8.6 102140 46
2011-04-04 09:14 51°34.682 2°59.758 6.8 278 8.6 102140 47
2011-04-04 09:15 51°34.664 2°59.748 3.6 284 8.7 102140 45
2011-04-04 09:16 51°34.646 2°59.738 5.2 279 8.7 102140 45
2011-04-04 09:17 51°34.628 2°59.73 5.2 278 8.7 102140 48
2011-04-04 09:18 51°34.611 2°59.721 5 280 8.7 102140 48
2011-04-04 09:19 51°34.592 2°59.711 3.5 285 8.6 102140 45
2011-04-04 09:20 51°34.573 2°59.702 3 280 8.6 102150 48
2011-04-04 09:21 51°34.553 2°59.691 2.9 279 8.6 102140 48
2011-04-04 09:22 51°34.533 2°59.681 4.8 279 8.6 102150 45
2011-04-04 09:23 51°34.513 2°59.672 5.6 286 8.7 102140 48
2011-04-04 09:24 51°34.494 2°59.662 3.5 285 8.7 102150 45
2011-04-04 09:25 51°34.473 2°59.651 2.9 282 8.7 102140 48
2011-04-04 09:26 51°34.452 2°59.643 5.7 282 8.7 102150 45
2011-04-04 09:27 51°34.433 2°59.635 3.8 279 8.7 102140 46
2011-04-04 09:28 51°34.415 2°59.627 6.2 282 8.7 102140 47
2011-04-04 09:29 51°34.395 2°59.619 3.7 284 8.7 102140 48
2011-04-04 09:30 51°34.376 2°59.611 4.5 284 8.7 102140 45
2011-04-04 09:31 51°34.368 2°59.598 6.8 280 8.7 102150 47
2011-04-04 09:32 51°34.363 2°59.58 6.2 284 8.7 102140 44
2011-04-04 09:33 51°34.385 2°59.533 6.7 282 8.7 102140 46
2011-04-04 09:34 51°34.427 2°59.496 4.2 285 8.7 102150 47
2011-04-04 09:35 51°34.471 2°59.507 2.5 280 8.7 102150 47
2011-04-04 09:36 51°34.516 2°59.536 3.4 76 8.7 102150 44
2011-04-04 09:37 51°34.558 2°59.575 4.2 82 8.6 102160 47
2011-04-04 09:38 51°34.595 2°59.613 3.1 82 8.5 102160 45
2011-04-04 09:39 51°34.631 2°59.643 3.7 286 8.5 102160 44
2011-04-04 09:40 51°34.665 2°59.675 -999 287 8.5 102160 46
2011-04-04 09:41 51°34.697 2°59.713 -999 78 8.5 102160 46
2011-04-04 09:42 51°34.732 2°59.745 -999 282 8.4 102160 44
2011-04-04 09:43 51°34.768 2°59.766 -999 282 8.4 102170 46
2011-04-04 09:44 51°34.806 2°59.783 -999 283 8.4 102160 46
2011-04-04 09:45 51°34.844 2°59.803 -999 78 8.4 102160 46
2011-04-04 09:46 51°34.878 2°59.837 -999 78 8.4 102160 46
2011-04-04 09:47 51°34.91 2°59.88 -999 78 8.4 102170 46
2011-04-04 09:48 51°34.942 2°59.925 -999 78 8.4 102170 46
2011-04-04 09:49 51°34.976 2°59.968 0.2 78 8.4 102170 46
2011-04-04 09:50 51°35.009 3°0.01 4.4 80 8.4 102170 46
2011-04-04 09:51 51°35.043 3°0.052 3.6 75 8.3 102170 45
2011-04-04 09:52 51°35.078 3°0.093 4.6 76 8.4 102170 45
2011-04-04 09:53 51°35.112 3°0.131 3.8 80 8.4 102180 48
2011-04-04 09:54 51°35.14 3°0.182 2.1 77 8.4 102170 48
2011-04-04 09:55 51°35.155 3°0.249 -999 78 8.4 102180 47
2011-04-04 09:56 51°35.161 3°0.324 -999 78 8.6 102180 47
2011-04-04 09:57 51°35.146 3°0.406 -999 34 8.5 102180 47
2011-04-04 09:58 51°35.109 3°0.491 -999 28 8.5 102180 46
2011-04-04 09:59 51°35.057 3°0.568 -999 26 8.4 102180 47
2011-04-04 10:00 51°35.013 3°0.624 -999 45 8.4 102180 47
2011-04-04 10:01 51°34.991 3°0.683 -999 40 8.4 102190 47
2011-04-04 10:02 51°34.917 3°0.88 6.4 3 8.3 102180 46
2011-04-04 10:03 51°34.755 3°1.125 7.9 353 8.3 102180 48
2011-04-04 10:04 51°34.531 3°1.249 11.3 353 8.2 102160 48
2011-04-04 10:05 51°34.299 3°1.343 9.8 353 8.2 102150 47
2011-04-04 10:06 51°34.064 3°1.436 12.2 358 8.1 102150 47
2011-04-04 10:07 51°33.829 3°1.507 11 353 8.1 102160 47
2011-04-04 10:08 51°33.594 3°1.552 11.4 353 8.1 102160 47
2011-04-04 10:09 51°33.361 3°1.602 9.8 351 8.1 102160 46
2011-04-04 10:10 51°33.129 3°1.65 10.4 278 8.2 102160 46
2011-04-04 10:11 51°32.897 3°1.699 11.7 350 8.2 102170 48
2011-04-04 10:12 51°32.666 3°1.754 11.8 354 8.2 102160 48
2011-04-04 10:13 51°32.436 3°1.804 11.9 355 8.2 102160 48
2011-04-04 10:14 51°32.206 3°1.858 9.3 354 8.2 102160 48
2011-04-04 10:15 51°31.978 3°1.914 11.2 354 8.1 102160 46
2011-04-04 10:16 51°31.75 3°1.962 9.5 356 8.2 102170 47
2011-04-04 10:17 51°31.534 3°2.06 9.2 357 8.2 102170 48
2011-04-04 10:18 51°31.319 3°2.162 10.4 354 8.2 102170 47
2011-04-04 10:19 51°31.103 3°2.261 9.1 354 8.2 102180 46
2011-04-04 10:20 51°30.886 3°2.36 9.8 354 8.2 102170 47
2011-04-04 10:21 51°30.669 3°2.461 9.4 358 8.2 102170 48
2011-04-04 10:22 51°30.466 3°2.617 9.6 3 8.2 102180 48
2011-04-04 10:23 51°30.264 3°2.774 9.7 358 8.2 102180 48
2011-04-04 10:24 51°30.061 3°2.932 10.6 1 8.2 102180 47
2011-04-04 10:25 51°29.857 3°3.087 10.3 360 8.2 102170 47
2011-04-04 10:26 51°29.654 3°3.248 9.6 357 8.3 102180 46
2011-04-04 10:27 51°29.449 3°3.414 11.2 356 8.3 102180 47
2011-04-04 10:28 51°29.244 3°3.58 9.2 1 8.3 102180 46
2011-04-04 10:29 51°29.041 3°3.747 9.6 -999 8.3 102180 46
2011-04-04 10:30 51°28.84 3°3.915 9.1 -999 8.3 102180 46
2011-04-04 10:31 51°28.638 3°4.074 9.8 359 8.3 102180 48
2011-04-04 10:32 51°28.437 3°4.239 11.3 354 8.4 102180 46
2011-04-04 10:33 51°28.22 3°4.212 12.4 282 8.4 102170 48
2011-04-04 10:34 51°28.144 3°3.913 12.6 279 8.4 102170 47
2011-04-04 10:35 51°28.183 3°3.716 7.5 285 8.4 102170 46
2011-04-04 10:36 51°28.209 3°3.636 9.4 279 8.5 102200 46
2011-04-04 10:37 51°28.226 3°3.58 9.3 282 8.6 102200 48
2011-04-04 10:38 51°28.23 3°3.539 8.4 284 8.6 102200 48
2011-04-04 10:39 51°28.23 3°3.516 6.8 284 8.6 102200 48
2011-04-04 10:40 51°28.228 3°3.502 6 285 8.7 102200 46
2011-04-04 10:41 51°28.224 3°3.495 6.6 286 8.8 102210 48
2011-04-04 10:42 51°28.219 3°3.494 8.2 279 8.8 102200 45
2011-04-04 10:43 51°28.212 3°3.497 8.9 286 8.8 102200 46
2011-04-04 10:44 51°28.203 3°3.502 5.1 279 8.8 102200 46
2011-04-04 10:45 51°28.202 3°3.507 8.9 285 8.9 102210 45
2011-04-04 10:46 51°28.255 3°3.472 6.3 278 8.8 102200 47
2011-04-04 10:47 51°28.294 3°3.425 7.1 284 8.9 102190 47
2011-04-04 10:48 51°28.313 3°3.394 5.6 279 8.9 102190 47
2011-04-04 10:49 51°28.324 3°3.372 7.7 281 8.9 102200 47
2011-04-04 10:50 51°28.328 3°3.357 6 280 8.9 102190 46
2011-04-04 10:51 51°28.327 3°3.35 8.3 284 8.9 102200 46
2011-04-04 10:52 51°28.324 3°3.349 5.8 280 8.9 102190 47
2011-04-04 10:53 51°28.32 3°3.354 6.3 278 8.9 102200 47
2011-04-04 10:54 51°28.314 3°3.361 7.2 279 9 102200 46
2011-04-04 10:55 51°28.307 3°3.371 7.3 285 9.1 102200 45
2011-04-04 10:56 51°28.297 3°3.383 4 283 9 102210 47
2011-04-04 10:57 51°28.286 3°3.394 5.2 283 9 102200 45
2011-04-04 10:58 51°28.273 3°3.406 5.3 278 8.9 102210 44
2011-04-04 10:59 51°28.262 3°3.417 5.6 285 8.9 102210 45
2011-04-04 11:00 51°28.25 3°3.43 6.6 284 8.8 102210 44
2011-04-04 11:01 51°28.239 3°3.444 6.7 281 8.8 102210 45
2011-04-04 11:02 51°28.229 3°3.457 6.3 282 8.8 102210 46
2011-04-04 11:03 51°28.22 3°3.471 5.4 278 8.7 102210 44
2011-04-04 11:04 51°28.211 3°3.485 5.1 279 8.7 102210 44
2011-04-04 11:05 51°28.203 3°3.501 3.4 278 8.7 102210 47
2011-04-04 11:06 51°28.194 3°3.517 5.7 280 8.8 102210 47
2011-04-04 11:07 51°28.186 3°3.535 3.4 281 8.7 102210 47
2011-04-04 11:08 51°28.178 3°3.552 3.1 279 8.8 102210 44
2011-04-04 11:09 51°28.174 3°3.57 4.6 283 8.8 102210 45
2011-04-04 11:10 51°28.205 3°3.561 8.4 279 8.8 102200 44
2011-04-04 11:11 51°28.249 3°3.512 7.1 279 8.8 102200 47
2011-04-04 11:12 51°28.278 3°3.465 7.6 285 8.8 102190 45
2011-04-04 11:13 51°28.293 3°3.442 7.4 279 8.8 102200 47
2011-04-04 11:14 51°28.302 3°3.432 7 284 8.9 102190 45
2011-04-04 11:15 51°28.307 3°3.432 6.2 282 8.9 102190 44
2011-04-04 11:16 51°28.309 3°3.44 7.1 279 8.9 102200 47
2011-04-04 11:17 51°28.31 3°3.452 6 286 9 102200 47
2011-04-04 11:18 51°28.309 3°3.471 5.5 280 9 102190 47
2011-04-04 11:19 51°28.308 3°3.492 5.9 280 9 102190 44
2011-04-04 11:20 51°28.305 3°3.513 4.2 279 9 102190 46
2011-04-04 11:21 51°28.301 3°3.536 5.6 284 9 102190 46
2011-04-04 11:22 51°28.297 3°3.559 7.2 82 8.9 102190 44
2011-04-04 11:23 51°28.294 3°3.582 5.6 289 8.8 102190 47
2011-04-04 11:24 51°28.291 3°3.607 5.2 284 8.8 102190 47
2011-04-04 11:25 51°28.29 3°3.631 3.8 284 8.8 102190 45
2011-04-04 11:26 51°28.287 3°3.656 4.3 283 8.8 102190 45
2011-04-04 11:27 51°28.286 3°3.682 3.8 283 8.8 102190 48
2011-04-04 11:28 51°28.284 3°3.709 4.6 284 8.8 102190 44
2011-04-04 11:29 51°28.284 3°3.737 4 279 8.8 102190 47
2011-04-04 11:30 51°28.283 3°3.766 3.7 279 8.8 102190 46
2011-04-04 11:31 51°28.283 3°3.796 3.6 284 8.8 102190 44
2011-04-04 11:32 51°28.284 3°3.825 2.7 278 8.8 102190 44
2011-04-04 11:33 51°28.286 3°3.855 5.5 280 8.8 102190 45
2011-04-04 11:34 51°28.287 3°3.886 5.8 285 8.9 102190 45
2011-04-04 11:35 51°28.287 3°3.92 5 283 8.9 102190 47
2011-04-04 11:36 51°28.287 3°3.954 3.4 284 8.9 102200 46
2011-04-04 11:37 51°28.287 3°3.988 4.3 284 9 102200 47
2011-04-04 11:38 51°28.287 3°4.024 6.2 281 8.9 102190 47
2011-04-04 11:39 51°28.287 3°4.06 6.2 281 8.9 102200 45
2011-04-04 11:40 51°28.288 3°4.096 3.7 286 8.8 102200 46
2011-04-04 11:41 51°28.288 3°4.135 5.3 279 8.9 102190 45
2011-04-04 11:42 51°28.289 3°4.173 3.4 284 8.8 102190 47
2011-04-04 11:43 51°28.29 3°4.211 4.9 278 8.8 102190 45
2011-04-04 11:44 51°28.292 3°4.25 3.5 284 8.9 102190 47
2011-04-04 11:45 51°28.293 3°4.289 4.4 280 8.9 102200 48
2011-04-04 11:46 51°28.295 3°4.329 4.6 281 8.9 102190 46
2011-04-04 11:47 51°28.297 3°4.368 3.6 280 8.9 102190 47
2011-04-04 11:48 51°28.301 3°4.409 2.9 284 8.8 102200 44
2011-04-04 11:49 51°28.304 3°4.449 3.8 284 8.8 102190 47
2011-04-04 11:50 51°28.308 3°4.49 2.5 283 8.8 102200 47
2011-04-04 11:51 51°28.312 3°4.533 4 280 8.8 102200 45
2011-04-04 11:52 51°28.315 3°4.576 3.3 280 8.8 102200 48
2011-04-04 11:53 51°28.319 3°4.619 3.5 286 8.8 102200 45
2011-04-04 11:54 51°28.323 3°4.664 3.3 285 8.8 102200 44
2011-04-04 11:55 51°28.326 3°4.71 4.2 283 8.8 102210 44
2011-04-04 11:56 51°28.33 3°4.756 4.4 286 8.7 102200 45
2011-04-04 11:57 51°28.334 3°4.803 4.3 279 8.7 102210 44
2011-04-04 11:58 51°28.339 3°4.851 4.4 285 8.7 102210 45
2011-04-04 11:59 51°28.343 3°4.899 4.5 282 8.7 102210 42
2011-04-04 12:00 51°28.348 3°4.948 4.1 287 8.7 102210 46
2011-04-04 12:01 51°28.353 3°4.997 5.8 283 8.7 102200 48
2011-04-04 12:02 51°28.358 3°5.049 5.3 283 8.7 102200 45
2011-04-04 12:03 51°28.362 3°5.101 6 285 8.7 102200 47
2011-04-04 12:04 51°28.367 3°5.153 4.9 282 8.7 102200 45
2011-04-04 12:05 51°28.371 3°5.205 5.7 281 8.7 102200 46
2011-04-04 12:06 51°28.376 3°5.258 6.2 76 8.6 102190 47
2011-04-04 12:07 51°28.381 3°5.312 6.6 284 8.6 102200 46
2011-04-04 12:08 51°28.386 3°5.365 5.6 282 8.6 102200 45
2011-04-04 12:09 51°28.392 3°5.418 4.8 280 8.6 102200 47
2011-04-04 12:10 51°28.397 3°5.472 4.7 282 8.6 102190 45
2011-04-04 12:11 51°28.413 3°5.514 6.6 284 8.6 102190 47
2011-04-04 12:12 51°28.428 3°5.421 11.8 283 8.6 102190 45
2011-04-04 12:13 51°28.392 3°5.147 9.3 277 8.7 102170 47
2011-04-04 12:14 51°28.373 3°4.844 10.3 284 8.7 102170 47
2011-04-04 12:15 51°28.355 3°4.541 13.9 283 8.7 102170 46
2011-04-04 12:16 51°28.333 3°4.24 10.1 280 8.8 102180 46
2011-04-04 12:17 51°28.299 3°3.941 9.7 282 8.8 102180 46
2011-04-04 12:18 51°28.268 3°3.678 8.4 284 8.8 102180 47
2011-04-04 12:19 51°28.242 3°3.588 7.3 283 8.9 102190 45
2011-04-04 12:20 51°28.251 3°3.607 6.1 284 8.9 102200 47
2011-04-04 12:21 51°28.265 3°3.659 5.6 283 8.9 102200 48
2011-04-04 12:22 51°28.279 3°3.708 5 284 8.9 102200 47
2011-04-04 12:23 51°28.294 3°3.759 6.3 279 8.8 102190 48
2011-04-04 12:24 51°28.343 3°3.802 5.8 280 8.8 102190 48
2011-04-04 12:25 51°28.416 3°3.83 3.7 283 8.8 102200 46
2011-04-04 12:26 51°28.494 3°3.892 4.4 75 8.8 102200 45
2011-04-04 12:27 51°28.554 3°3.982 4.7 81 8.7 102200 45
2011-04-04 12:28 51°28.603 3°4.064 5.4 78 8.7 102200 47
2011-04-04 12:29 51°28.645 3°4.134 6 81 8.7 102200 45
2011-04-04 12:30 51°28.682 3°4.196 5 82 8.7 102190 45
2011-04-04 12:31 51°28.717 3°4.254 6 82 8.7 102200 48
2011-04-04 12:32 51°28.749 3°4.31 6.1 75 8.6 102190 46
2011-04-04 12:33 51°28.781 3°4.365 5.7 79 8.6 102200 48
2011-04-04 12:34 51°28.815 3°4.421 5.6 80 8.7 102200 48
2011-04-04 12:35 51°28.85 3°4.479 5.5 81 8.7 102200 47
2011-04-04 12:36 51°28.886 3°4.54 4.8 76 8.7 102200 45
2011-04-04 12:37 51°28.923 3°4.605 4.2 76 8.7 102210 47
2011-04-04 12:38 51°28.957 3°4.677 4.5 77 8.7 102200 48
2011-04-04 12:39 51°28.991 3°4.749 4.5 77 8.6 102210 45
2011-04-04 12:40 51°29.026 3°4.819 4.1 82 8.7 102200 48
2011-04-04 12:41 51°29.063 3°4.886 4.9 74 8.7 102200 45
2011-04-04 12:42 51°29.1 3°4.952 4.6 74 8.7 102200 48
2011-04-04 12:43 51°29.138 3°5.015 3.9 79 8.8 102200 45
2011-04-04 12:44 51°29.176 3°5.079 3.9 80 8.8 102200 47
2011-04-04 12:45 51°29.214 3°5.148 4.3 76 8.8 102190 46
2011-04-04 12:46 51°29.247 3°5.247 4 76 8.9 102200 45
2011-04-04 12:47 51°29.268 3°5.377 3.6 39 8.8 102200 47
2011-04-04 12:48 51°29.274 3°5.515 -999 30 8.8 102200 47
2011-04-04 12:49 51°29.263 3°5.649 4.2 24 8.8 102200 46
2011-04-04 12:50 51°29.239 3°5.77 7.1 15 8.8 102200 45
2011-04-04 12:51 51°29.211 3°5.868 7.1 16 8.7 102200 47
2011-04-04 12:52 51°29.195 3°5.937 7.1 9 8.8 102200 45
2011-04-04 12:53 51°29.187 3°5.997 7.2 10 8.8 102200 45
2011-04-04 12:54 51°29.145 3°6.063 8.1 357 8.7 102200 45
2011-04-04 12:55 51°28.99 3°6.188 11.6 356 8.7 102180 47
2011-04-04 12:56 51°28.811 3°6.374 10.9 357 8.7 102190 45
2011-04-04 12:57 51°28.633 3°6.57 9.2 358 8.6 102180 45
2011-04-04 12:58 51°28.454 3°6.762 10.6 358 8.6 102180 47
2011-04-04 12:59 51°28.274 3°6.955 9.6 358 8.6 102180 47
2011-04-04 13:00 51°28.095 3°7.143 11.7 355 8.5 102170 45
2011-04-04 13:01 51°27.918 3°7.33 9.2 358 8.5 102170 47
2011-04-04 13:02 51°27.738 3°7.515 8.9 359 8.5 102180 47
2011-04-04 13:03 51°27.56 3°7.701 10.7 360 8.6 102180 47
2011-04-04 13:04 51°27.372 3°7.844 12.5 349 8.6 102170 48
2011-04-04 13:05 51°27.174 3°7.88 10.3 279 8.5 102160 46
2011-04-04 13:06 51°26.975 3°7.912 11.9 349 8.5 102150 46
2011-04-04 13:07 51°26.776 3°7.947 11.5 349 8.6 102150 47
2011-04-04 13:08 51°26.579 3°7.985 12.1 347 8.5 102160 47
2011-04-04 13:09 51°26.415 3°8.014 11.1 351 8.5 102160 47
2011-04-04 13:10 51°26.363 3°7.99 7.3 284 8.5 102170 47
2011-04-04 13:11 51°26.367 3°8.007 6 279 8.6 102180 48
2011-04-04 13:12 51°26.382 3°8.041 5.6 281 8.7 102170 47
2011-04-04 13:13 51°26.399 3°8.085 5.7 279 8.8 102170 45
2011-04-04 13:14 51°26.415 3°8.131 6.5 285 8.9 102180 46
2011-04-04 13:15 51°26.431 3°8.176 8.5 281 8.9 102180 44
2011-04-04 13:16 51°26.447 3°8.221 0.4 282 8.9 102180 45
2011-04-04 13:17 51°26.463 3°8.266 -999 282 8.8 102180 45
2011-04-04 13:18 51°26.48 3°8.31 5.2 280 8.8 102180 45
2011-04-04 13:19 51°26.498 3°8.355 6.2 280 8.8 102180 45
2011-04-04 13:20 51°26.516 3°8.399 4.7 279 8.7 102180 43
2011-04-04 13:21 51°26.536 3°8.442 4.8 279 8.6 102180 46
2011-04-04 13:22 51°26.555 3°8.484 5.3 285 8.6 102190 44
2011-04-04 13:23 51°26.574 3°8.526 5.7 279 8.7 102190 46
2011-04-04 13:24 51°26.594 3°8.57 6.8 285 8.7 102190 45
2011-04-04 13:25 51°26.621 3°8.607 7.1 279 8.8 102190 45
2011-04-04 13:26 51°26.662 3°8.582 9.7 282 8.7 102180 43
2011-04-04 13:27 51°26.632 3°8.527 10.4 352 8.7 102170 42
2011-04-04 13:28 51°26.506 3°8.486 10.8 352 8.6 102160 44
2011-04-04 13:29 51°26.389 3°8.377 11.8 283 8.6 102170 43
2011-04-04 13:30 51°26.373 3°8.205 8.5 281 8.7 102170 44
2011-04-04 13:31 51°26.412 3°8.166 7.3 280 8.7 102180 44
2011-04-04 13:32 51°26.43 3°8.205 7.1 280 8.8 102200 42
2011-04-04 13:33 51°26.45 3°8.247 7.9 278 8.8 102210 44
2011-04-04 13:34 51°26.47 3°8.286 7.2 280 8.8 102210 42
2011-04-04 13:35 51°26.492 3°8.327 7.2 278 8.8 102210 41
2011-04-04 13:36 51°26.514 3°8.366 9.5 286 8.8 102210 43
2011-04-04 13:37 51°26.535 3°8.407 9.2 280 8.9 102210 41
2011-04-04 13:38 51°26.555 3°8.448 8.5 286 8.9 102200 42
2011-04-04 13:39 51°26.575 3°8.49 5.7 284 9 102210 41
2011-04-04 13:40 51°26.596 3°8.533 9.3 287 9 102210 43
2011-04-04 13:41 51°26.617 3°8.576 8.6 284 8.9 102210 43
2011-04-04 13:42 51°26.639 3°8.618 8.4 280 8.9 102210 43
2011-04-04 13:43 51°26.661 3°8.661 11.8 285 8.9 102210 40
2011-04-04 13:44 51°26.682 3°8.703 11.8 279 9 102210 41
2011-04-04 13:45 51°26.705 3°8.746 9.3 279 9 102210 41
2011-04-04 13:46 51°26.742 3°8.774 10.4 278 9 102210 42
2011-04-04 13:47 51°26.786 3°8.734 11.2 279 8.9 102200 42
2011-04-04 13:48 51°26.813 3°8.705 9.1 281 8.9 102200 42
2011-04-04 13:49 51°26.838 3°8.7 10.3 278 9 102220 43
2011-04-04 13:50 51°26.864 3°8.713 6.9 278 9 102210 41
2011-04-04 13:51 51°26.89 3°8.743 8.7 285 9 102210 43
2011-04-04 13:52 51°26.914 3°8.782 10.5 282 8.9 102210 41
2011-04-04 13:53 51°26.937 3°8.825 12.5 285 8.9 102210 43
2011-04-04 13:54 51°26.958 3°8.867 7.6 283 8.9 102220 41
2011-04-04 13:55 51°26.977 3°8.909 7.2 280 8.8 102210 43
2011-04-04 13:56 51°26.997 3°8.949 7.4 284 8.9 102210 44
2011-04-04 13:57 51°27.019 3°8.99 6.2 281 8.8 102210 43
2011-04-04 13:58 51°27.042 3°9.026 6.1 278 8.9 102220 41
2011-04-04 13:59 51°27.065 3°9.064 7 283 8.8 102210 43
2011-04-04 14:00 51°27.087 3°9.102 6.8 280 8.9 102210 41
2011-04-04 14:01 51°27.11 3°9.139 9.1 281 8.9 102210 42
2011-04-04 14:02 51°27.133 3°9.18 9.6 282 8.9 102200 42
2011-04-04 14:03 51°27.154 3°9.219 6.1 282 8.9 102200 41
2011-04-04 14:04 51°27.218 3°9.27 5.9 80 8.9 102200 40
2011-04-04 14:05 51°27.251 3°9.395 8.2 34 8.9 102220 42
2011-04-04 14:06 51°27.214 3°9.468 9.1 359 8.8 102220 43
2011-04-04 14:07 51°27.176 3°9.455 11.5 278 8.8 102190 41
2011-04-04 14:08 51°27.137 3°9.415 10 348 8.8 102190 42
2011-04-04 14:09 51°27.097 3°9.374 14.3 283 8.7 102170 43
2011-04-04 14:10 51°27.058 3°9.333 9.9 279 8.7 102170 42
2011-04-04 14:11 51°27.02 3°9.295 13.2 282 8.8 102180 43
2011-04-04 14:12 51°26.983 3°9.254 11.6 279 8.7 102170 42
2011-04-04 14:13 51°26.948 3°9.21 14.2 282 8.7 102170 43
2011-04-04 14:14 51°26.914 3°9.165 11.4 285 8.7 102170 42
2011-04-04 14:15 51°26.879 3°9.12 9.4 283 8.7 102160 42
2011-04-04 14:16 51°26.843 3°9.076 12.3 280 8.7 102160 43
2011-04-04 14:17 51°26.808 3°9.024 11.7 280 8.7 102150 41
2011-04-04 14:18 51°26.775 3°8.967 11.1 279 8.8 102150 41
2011-04-04 14:19 51°26.741 3°8.909 9.3 279 8.8 102140 41
2011-04-04 14:20 51°26.707 3°8.852 11.1 279 8.8 102140 42
2011-04-04 14:21 51°26.673 3°8.796 11.9 285 8.8 102150 42
2011-04-04 14:22 51°26.637 3°8.742 11.6 280 8.8 102150 40
2011-04-04 14:23 51°26.604 3°8.683 12.5 278 8.8 102150 42
2011-04-04 14:24 51°26.571 3°8.625 12.5 285 8.9 102150 41
2011-04-04 14:25 51°26.546 3°8.561 11.6 280 8.9 102160 43
2011-04-04 14:26 51°26.56 3°8.476 9.5 282 8.9 102170 42
2011-04-04 14:27 51°26.599 3°8.393 10.7 284 8.9 102160 40
2011-04-04 14:28 51°26.677 3°8.363 8.9 280 8.9 102170 40
2011-04-04 14:29 51°26.761 3°8.424 7 81 8.9 102190 43
2011-04-04 14:30 51°26.804 3°8.529 7.6 81 8.9 102200 42
2011-04-04 14:31 51°26.825 3°8.614 8 42 8.9 102210 42
2011-04-04 14:32 51°26.797 3°8.701 10 359 8.8 102200 41
2011-04-04 14:33 51°26.685 3°8.663 16.7 280 8.8 102180 40
2011-04-04 14:34 51°26.543 3°8.481 15.8 280 8.8 102150 41
2011-04-04 14:35 51°26.411 3°8.262 12.5 281 8.9 102150 40
2011-04-04 14:36 51°26.281 3°8.041 12.6 283 8.9 102130 39
2011-04-04 14:37 51°26.149 3°7.825 12.1 286 9 102140 40
2011-04-04 14:38 51°26.018 3°7.613 12 279 9 102120 39
2011-04-04 14:39 51°25.887 3°7.399 13.3 281 9 102120 40
2011-04-04 14:40 51°25.754 3°7.191 19 283 9 102120 39
2011-04-04 14:41 51°25.62 3°6.981 18.4 283 9 102120 39
2011-04-04 14:42 51°25.483 3°6.778 16.2 284 9.1 102120 39
2011-04-04 14:43 51°25.337 3°6.591 13.1 279 9.1 102120 38
2011-04-04 14:44 51°25.192 3°6.399 14.1 283 9.1 102130 38
2011-04-04 14:45 51°25.047 3°6.21 8.4 280 9.1 102120 39
2011-04-04 14:46 51°24.9 3°6.018 20.4 280 9.1 102150 39
2011-04-04 14:47 51°24.751 3°5.829 15.1 283 9.1 102150 38
2011-04-04 14:48 51°24.603 3°5.633 19.3 284 9.2 102160 38
2011-04-04 14:49 51°24.453 3°5.44 20.3 284 9.2 102140 38
2011-04-04 14:50 51°24.301 3°5.244 17.3 285 9.3 102150 37
2011-04-04 14:51 51°24.144 3°5.05 14.6 281 9.2 102150 38
2011-04-04 14:52 51°23.989 3°4.859 14.4 280 9.3 102150 37
2011-04-04 14:53 51°23.841 3°4.667 20.1 281 9.3 102150 37
2011-04-04 14:54 51°23.693 3°4.48 14.4 283 9.4 102160 39
2011-04-04 14:55 51°23.546 3°4.289 15 281 9.4 102140 39
2011-04-04 14:56 51°23.397 3°4.1 18.7 280 9.4 102150 39
2011-04-04 14:57 51°23.249 3°3.906 14.9 284 9.4 102170 40
2011-04-04 14:58 51°23.12 3°3.681 15 283 9.4 102170 40
2011-04-04 14:59 51°22.991 3°3.456 13.9 282 9.4 102160 38
2011-04-04 15:00 51°22.857 3°3.235 14.9 283 9.4 102160 39
2011-04-04 15:01 51°22.723 3°3.021 16.3 282 9.4 102170 40
2011-04-04 15:02 51°22.59 3°2.805 18 283 9.4 102170 40
2011-04-04 15:03 51°22.457 3°2.586 18.1 283 9.4 102190 40
2011-04-04 15:04 51°22.323 3°2.373 13.5 281 9.4 102180 41
2011-04-04 15:05 51°22.189 3°2.156 17.4 285 9.4 102150 40
2011-04-04 15:06 51°22.054 3°1.94 15.4 283 9.4 102160 41
2011-04-04 15:07 51°21.919 3°1.723 15 280 9.3 102160 40
2011-04-04 15:08 51°21.789 3°1.506 13.9 281 9.3 102170 40
2011-04-04 15:09 51°21.665 3°1.274 17.3 281 9.4 102160 41
2011-04-04 15:10 51°21.543 3°1.038 13 280 9.4 102190 41
2011-04-04 15:11 51°21.422 3°0.803 19.1 281 9.3 102160 41
2011-04-04 15:12 51°21.298 3°0.572 15 286 9.3 102170 42
2011-04-04 15:13 51°21.176 3°0.339 14.2 284 9.3 102190 41
2011-04-04 15:14 51°21.054 3°0.107 17 285 9.3 102180 41
2011-04-04 15:15 51°20.933 2°59.874 16.6 281 9.3 102190 40
2011-04-04 15:16 51°20.81 2°59.635 14.6 283 9.4 102190 42
2011-04-04 15:17 51°20.688 2°59.397 16.4 283 9.4 102180 40
2011-04-04 15:18 51°20.563 2°59.161 20.3 281 9.4 102190 41
2011-04-04 15:19 51°20.442 2°58.924 14.4 282 9.3 102210 41
2011-04-04 15:20 51°20.318 2°58.683 14.5 283 9.4 102210 42
2011-04-04 15:21 51°20.195 2°58.442 16.4 282 9.4 102210 41
2011-04-04 15:22 51°20.071 2°58.203 18.3 280 9.3 102180 42
2011-04-04 15:23 51°19.946 2°57.963 20.3 280 9.4 102210 42
2011-04-04 15:24 51°19.822 2°57.722 21.2 280 9.3 102240 41
2011-04-04 15:25 51°19.696 2°57.483 17.3 281 9.2 102240 42
2011-04-04 15:26 51°19.574 2°57.244 16.9 282 9.3 102230 42
2011-04-04 15:27 51°19.451 2°57.01 18.7 284 9.3 102240 41
2011-04-04 15:28 51°19.329 2°56.772 18.6 285 9.3 102240 41
2011-04-04 15:29 51°19.206 2°56.53 11.8 284 9.4 102260 40
2011-04-04 15:30 51°19.084 2°56.289 8.4 280 9.4 102220 40
2011-04-04 15:31 51°18.95 2°56.067 20.7 284 9.3 102220 39
2011-04-04 15:32 51°18.811 2°55.85 19.9 283 9.4 102210 39
2011-04-04 15:33 51°18.673 2°55.631 20.3 284 9.5 102210 39
2011-04-04 15:34 51°18.534 2°55.411 18.5 282 9.4 102220 39
2011-04-04 15:35 51°18.393 2°55.191 15.2 282 9.5 102220 38
2011-04-04 15:36 51°18.254 2°54.967 16.9 283 9.4 102210 40
2011-04-04 15:37 51°18.114 2°54.745 18.6 282 9.4 102220 40
2011-04-04 15:38 51°17.972 2°54.529 14.8 282 9.5 102230 39
2011-04-04 15:39 51°17.821 2°54.331 20.8 282 9.5 102220 39
2011-04-04 15:40 51°17.668 2°54.134 22.6 284 9.5 102210 39
2011-04-04 15:41 51°17.518 2°53.938 21.2 280 9.6 102230 39
2011-04-04 15:42 51°17.359 2°53.756 14.7 278 9.6 102210 40
2011-04-04 15:43 51°17.187 2°53.61 16.2 281 9.5 102200 38
2011-04-04 15:44 51°16.995 2°53.574 14.9 353 9.5 102190 40
2011-04-04 15:45 51°16.796 2°53.571 15.7 353 9.5 102190 40
2011-04-04 15:46 51°16.597 2°53.547 14.2 355 9.6 102190 41
2011-04-04 15:47 51°16.393 2°53.54 13.3 353 9.5 102180 40
2011-04-04 15:48 51°16.19 2°53.528 13.8 353 9.5 102200 39
2011-04-04 15:49 51°15.989 2°53.52 17.8 355 9.5 102180 39
2011-04-04 15:50 51°15.785 2°53.541 13.7 1 9.5 102180 38
2011-04-04 15:51 51°15.612 2°53.733 12 7 9.6 102210 38
2011-04-04 15:52 51°15.44 2°53.939 8.4 5 9.6 102210 39
2011-04-04 15:53 51°15.261 2°54.131 13.8 7 9.6 102210 40
2011-04-04 15:54 51°15.089 2°54.33 13.7 9 9.6 102200 39
2011-04-04 15:55 51°14.927 2°54.551 10.2 10 9.6 102220 39
2011-04-04 15:56 51°14.763 2°54.759 9.8 7 9.6 102220 39
2011-04-04 15:57 51°14.591 2°54.952 10.7 5 9.6 102220 40
2011-04-04 15:58 51°14.423 2°55.141 13.9 8 9.7 102230 41
2011-04-04 15:59 51°14.259 2°55.307 9.3 10 9.7 102240 40
2011-04-04 16:00 51°14.122 2°55.419 2.6 9 9.8 102270 39
2011-04-04 16:01 51°14.011 2°55.5 4.5 1 9.9 102270 41
2011-04-04 16:02 51°13.909 2°55.573 6.2 354 10.1 102280 41
2011-04-04 16:03 51°13.814 2°55.646 0.4 349 10.1 102280 37
2011-04-04 16:04 51°13.742 2°55.737 6.1 17 10.1 102270 38
2011-04-04 16:05 51°13.694 2°55.838 5.1 38 10.2 102270 37
2011-04-04 16:06 51°13.669 2°55.929 4.1 44 10.3 102280 38
2011-04-04 16:07 51°13.664 2°55.95 6.6 38 10.3 102260 38